ロニオス彗星

267P/LONEOS (2018)

English version
Home page
Updated on March 5, 2020

---------------------------------------------------------------------

・ プロフィール

・ 軌道要素

Epoch 2018 July 21.0 TT = JDT 2458320.5
T 2018 July 22.31458 TT                                 MPCW
q   1.2411175            (2000.0)            P               Q
n   0.17120944     Peri.  114.07942     +0.95118684     +0.29798177
a   3.2120644      Node   228.68958     -0.30744160     +0.89224023
e   0.6136075      Incl.    6.13799     -0.02689355     +0.33928490
P   5.76
From 192 observations 2006 Aug. 29-2018 Nov. 17, mean residual 0".5.
     Nongravitational parameters A1 = -0.06, A2 = -0.0033.

・ 光度変化

        m1 = 19.5 + 5 logΔ + 10.0 log r

---------------------------------------------------------------------

軌道要素はM.P.E.C. 2019-J142に掲載されたものです。
光度グラフはComet for Windowsで作成したものです。

---------------------------------------------------------------------

Copyright(C) Seiichi Yoshida (comet@aerith.net). All rights reserved.